CZ-6A DEB, 61472

Orbit data source: Space-Track

CZ-6A DEB, 61472 is space debris in LEO originally from a launch on Tue, 06 Aug 2024 UTC launched from the Taiyaun Space Center, China (TSC). Debris objects in space refer to the collection of defunct objects orbiting the Earth. Examples of debris include non-operational satellites, rocket bodies, and fragments generated from explosions, collisions, or faulty payload assembly.

Loading next visibility...
CZ-6A DEB details
Identifier
61472, 2024-140AAE
Orbit
LEO
Last TLE update1 day ago
Origin
Flag of CNCNSA (CN / PRC)
ManufacturerSAST
MissionSpacecraft
Bus & MotorUnknown
MassUnknown
Launch date (UTC)
2024-08-06 (6 months ago)
Launch vehicleUnknown
Launch site
Taiyaun Space Center, China (TSC)
Object type
Payload
Rocket body
Debris
Shape & HBRUnknown
Radar Cross SectionSmall (<0.1 m²)

Expand to show TLE details & history

TLE from 1 day ago
0 CZ-6A DEB
1 61472U 24140AAE 25035.09296429  .00003596  00000-0  28365-2 0  9996
2 61472  89.0612 333.1914 0235164  35.7372 325.9279 13.79368659 21175
Epoch: 2025-02-04T02:13Z
Definitive object data (Epoch: 2025-02-04T02:13:52.114Z)
Latitude-0.00001°
Longitude165.22105°
Altitude827.344 km
Speed7.511 km/s
True Right ascension22h 12m 45s
True Declination0° 00' 00"
Sunlit
Object was in daylight at TLE epoch
Visualization TLE readout
Latitude54.81778°
Longitude-16.22201°
Altitude980.62 km
Speed7.364 km/s
Apparent Right ascension16h 48m 16s
Apparent Declination46° 56' 44"
Sunlit
Object is in full shadow
Visualization observer readout
Local Sidereal Time08:42:30
Azimuth36.438° NE
Elevation11.288°
Doppler factor1
Orbital elements
Apogee altitude1,135.774 km
Perigee altitude790.494 km
Semi-major axis7,341.271 km
Eccentricity0.0235164
Inclination89.0612°
RAAN333.1914°
Arg. of periapsis35.7372°
True anomaly324.38074°
Mean anomaly325.9279°
Eccentric anomaly325.15812°
Mean motion3.45053 °/min
BSTAR0.0028365
Orbital period104.33 mins
Loading maneuver chart data...
Loading historical data...
Loading historical data...
Loading historical data...
Loading historical data...
Loading historical data...
Loading historical data...
Loading historical data...

CZ-6A DEB Visibility forecast

Observer location: undefined°, undefined

Span
Click to sort rows by Start time (UTC) header in descending order
Start Az.
Max El. time (UTC)
Max El. Az.
Max El.
End time (UTC)
End Az.
8 mins2025-02-05 06:40:17.934Z36.577° NE2025-02-05 06:44:17.934Z79.209° E19.091°2025-02-05 06:48:17.934Z120.854° SE
11 mins2025-02-05 08:24:17.934Z350.247° N2025-02-05 08:29:17.934Z262.52° W40.972°2025-02-05 08:35:17.934Z197.375° SSW
8 mins2025-02-05 20:08:17.934Z178.743° S2025-02-05 20:12:17.934Z350.943° N44.11°2025-02-05 20:16:17.934Z358.407° N
|